Location: Augirein
(42.9320°N, 0.9181°E)
Time: 22:05:24
(UTC+00:00)

X-37B - Pass Details

Date: 24 September 2021
Orbit: 385 x 389 km, 45.0° (Epoch: 17 October)

Event Time Altitude Azimuth Distance (km) Brightness Sun altitude
Exits shadow 04:36:36 27° 249° (WSW) 785 1.5 -13.4°
Maximum altitude 04:38:12 85° 166° (SSE) 392 0.5 -13.1°
Drops below altitude 10° 04:41:23 10° 74° (ENE) 1,416 4.9 -12.6°
Sets 04:43:28 0° 74° (ENE) 2,273 6.6 -12.2°
